Weather in Nikolayevka

Russia / Amur Oblast     53°34′42″N   127°01′02″E
temp.,
°C
wind,
m/s
gust,
m/s
humid.,
%
clouds,
%
prec.,
mm/h
press.,
hPa
HPBL,
m
19 april, mon
mon1900:00+4ese377770 0.0 1001105
03:00+1wsw239366 0.0 100373
06:00−1nw71185100 0.1 1006542
09:00−1nw812564 0.3 10091031
12:00+1nw913475 0.0 10111599
15:00+1nw914425 0.0 10122145
18:000nw815450 0.0 10142048
21:00−3nw716495 0.0 10151813
20 april, tue
tue2000:00−4nw817470 0.0 10141597
03:00−5nw816450 0.0 10151298
06:00−5nw714450 0.0 10151112
09:00−2nnw710340 0.0 10161034
12:00+3nw57240 0.0 10151331
15:00+5nw352391 0.0 10141461
18:00+4w233920 0.0 101481
21:000ene11465 0.0 101410
21 april, wed
wed2100:00−1e22505 0.0 101512
03:00−2e265432 0.0 1015121
06:00−1e41252100 0.0 1015293
09:00+3e5113893 0.0 1014637
12:00+9ese5828100 0.0 10121173
15:00+14se36335 0.0 10081145
18:00+10nne376078 0.0 1006124
21:00+3nne2374100 0.0 100839
22 april, thu
thu2200:00+2n2491100 0.1 100969
03:00+3n2494100 1.0 1010106
06:00+1n2588100 0.1 1011117
09:00+5n3565100 0.1 1012416
12:00+8nnw456198 0.0 1014769
15:00+8nnw6666100 0.0 1017939
18:00+6nw5665100 0.1 1020949
21:00+2nw61258100 0.1 1025510
23 april, fri
fri2300:000nnw51153100 0.0 1028591
03:00−1nw4945100 0.0 1031351
06:00−1nw3846100 0.0 1033357
09:00+2n5729100 0.0 10341139
12:00+5n4622100 0.0 10341542
15:00+7n3523100 0.0 10321785
18:00+5nnw2536100 0.0 1031261
21:00+1nnw2252100 0.0 103225